Weather Roundup
Issued by NWS Springfield, MO

Home | Current Version | Previous Version | Text Only | Print | Product List | Glossary On
Versions: 1 2 3 4 5 6 7 8 9 10 11 12 13 14 15 16 17 18 19 20 21 22 23 24 25 26 27 28 29 30 31 32 33 34 35 36 37 38 39 40 41 42 43 44 45 46 47 48 49 50
000
NZUS99 KSGF 220607
HRRSGF

HOURLY WEATHER
NATIONAL WEATHER SERVICE SPRINGFIELD MO
100 AM CDT TUE AUG 22 2017

......SGF CWA......

CITY           SKY/WX    TMP DP  RH WIND       PRES   REMARKS
SPRINGFIELD    CLEAR     77  74  90 S15       30.02F
6HR MIN TEMP:  77; 6HR MAX TEMP:  85;

JOPLIN         CLOUDY    82  75  79 S15       30.02F
6HR MIN TEMP:  82; 6HR MAX TEMP:  89;

WEST PLAINS    CLEAR     78  72  81 SW10      30.08F
6HR MIN TEMP:  78; 6HR MAX TEMP:  86;

ROLLA          CLOUDY    77  72  84 S10       30.01F
6HR MIN TEMP:  74; 6HR MAX TEMP:  85; 6HR PCP:  0.12;

OSAGE BEACH    CLOUDY    78  73  84 S8        29.99F
BRANSON        CLEAR     77  72  83 S7        30.08F

......SURROUNDING SGF CWA......

CITY           SKY/WX    TMP DP  RH WIND       PRES   REMARKS
CHANUTE        PTCLDY    82  74  76 S18G26    29.97F
PARSONS        CLOUDY    82  74  76 S12G20    30.00F
COFFEYVILLE    CLOUDY    82  74  76 S17G24    29.99F
EMPORIA        CLOUDY    77  72  84 S14G21    29.95
GROVE OK       CLOUDY    81  73  78 S8        30.04F
ROGERS AR      PTCLDY    77  73  87 S10       30.08F
HARRISON AR    CLEAR     77  73  87 S7        30.09F
NEAR YELLVILLE CLEAR     79  70  73 SW5       30.04F

......KANSAS AND MISSOURI......

CITY           SKY/WX    TMP DP  RH WIND       PRES   REMARKS
KANSAS CTY INT TSTM      70  69  97 S3        29.97S
DOWNTOWN KC    LGT RAIN  72  71  97 VRB6      29.97F FOG
COLUMBIA       CLOUDY    76  74  93 S8        29.96F
SEDALIA        CLOUDY    73  71  93 VRB7      30.02R THUNDER
ST JOSEPH      HVY RAIN  69  69 100 NE32G40   30.00R FOG
ST LOUIS       CLOUDY    83  73  72 S14       29.96F
SPIRIT OF STL  CLOUDY    82  73  74 S9        29.95F
KIRKSVILLE     LGT RAIN  68  68 100 SW3       29.99R FOG
WICHITA        MOCLDY    78  71  79 S12       29.97S
TOPEKA         TSTM      73  73 100 S9        29.92F
OLATHE         TSTM      68  68 100 SW5       29.98F

......TENNESSEE......

CITY           SKY/WX    TMP DP  RH WIND       PRES   REMARKS
MEMPHIS        CLEAR     80  74  81 S6        30.07F
NASHVILLE      CLEAR     74  69  85 S5        30.09F

......ARKANSAS.......

CITY           SKY/WX    TMP DP  RH WIND       PRES   REMARKS
FAYETTEVILLE   CLEAR     74  73  97 S3        30.09F
FT SMITH       CLEAR     78  75  90 CALM      30.05F
LITTLE ROCK    CLEAR     79  76  90 SW3       30.06F

......OKLAHOMA.......

CITY           SKY/WX    TMP DP  RH WIND       PRES   REMARKS
TULSA          MOCLDY    83  74  74 S16       30.01S
PONCA CITY     CLEAR     81  69  67 S7        29.99F
MCALESTER      CLEAR     80  73  79 S6        30.06F
OKLAHOMA CITY  PTCLDY    77  70  79 S12       30.04S

......IOWA............

CITY           SKY/WX    TMP DP  RH WIND       PRES   REMARKS
DES MOINES     LGT RAIN  67  65  93 S13       29.94R
QUAD CITIES    LGT RAIN  72  65  78 SW16G25   29.88F

......ILLINOIS........

CITY           SKY/WX    TMP DP  RH WIND       PRES   REMARKS
QUINCY         TSTM      68  67  96 NW13      29.97F FOG
CHICAGO        CLOUDY    72  68  87 S15       29.83F




USA.gov is the U.S. government's official web portal to all federal, state and local government web resources and services.